Location: Lafig�re
(44.4503°N, 4.0357°E)
Time: 15:23:42
(UTC+00:00)

Transit 2A Rocket - Pass Details

Date: 24 January 2021
Orbit: 594 x 908 km, 66.7° (Epoch: 06 March)

Event Time Altitude Azimuth Distance (km) Brightness Sun altitude
Rises 10:54:46 0° 181° (S) 3,372 9.5 24.9°
Reaches altitude 10° 10:57:33 10° 171° (S) 2,394 9.5 25.1°
Maximum altitude 11:02:14 29° 112° (ESE) 1,370 7.1 25.3°
Drops below altitude 10° 11:06:37 10° 53° (NE) 2,225 7.3 25.5°
Sets 11:09:06 0° 42° (NE) 3,096 7.8 25.6°
